TimeAEST,TemperatureF,Dew PointF,Humidity,Sea Level PressureIn,VisibilityMPH,Wind Direction,Wind SpeedMPH,Gust SpeedMPH,PrecipitationIn,Events,Conditions,WindDirDegrees,DateUTC
12:00 AM,68,63,78,30.14,,South,17.3,,,,Overcast,170,2013-09-06 14:00:00
12:00 AM,68.0,62.6,83,30.12,5.6,South,17.3,-,N/A,,Mostly Cloudy,170,2013-09-06 14:00:00
12:10 AM,66.2,62.6,88,30.12,3.7,SE,18.4,-,N/A,Rain,Light Rain Showers,140,2013-09-06 14:10:00
12:30 AM,68.0,62.6,83,30.12,3.7,SE,18.4,-,N/A,Rain,Light Rain Showers,140,2013-09-06 14:30:00
1:00 AM,67,65,89,30.13,,SE,10.4,,,,,140,2013-09-06 15:00:00
1:00 AM,68.0,64.4,88,30.12,3.7,SE,10.4,-,N/A,Rain,Light Rain Showers,140,2013-09-06 15:00:00
1:30 AM,68.0,62.6,83,30.09,6.2,South,8.1,-,N/A,,Scattered Clouds,180,2013-09-06 15:30:00
2:00 AM,68.0,60.8,78,30.09,6.2,South,10.4,-,N/A,,Partly Cloudy,170,2013-09-06 16:00:00
2:30 AM,68.0,60.8,78,30.06,6.2,South,10.4,-,N/A,,Partly Cloudy,170,2013-09-06 16:30:00
3:00 AM,69,62,72,30.08,,SSE,11.5,,,,Overcast,160,2013-09-06 17:00:00
3:00 AM,68.0,62.6,83,30.06,6.2,SSE,11.5,-,N/A,,Mostly Cloudy,160,2013-09-06 17:00:00
3:30 AM,68.0,60.8,78,30.06,6.2,SSE,13.8,-,N/A,,Partly Cloudy,150,2013-09-06 17:30:00
4:00 AM,68,60,70,30.09,,South,11.5,,,,,170,2013-09-06 18:00:00
4:00 AM,68.0,60.8,78,30.06,6.2,South,11.5,-,N/A,,Partly Cloudy,170,2013-09-06 18:00:00
4:30 AM,68.0,62.6,83,30.06,6.2,South,11.5,-,N/A,,Scattered Clouds,170,2013-09-06 18:30:00
5:00 AM,68.0,60.8,78,30.06,5.6,South,13.8,-,N/A,Rain,Light Rain Showers,180,2013-09-06 19:00:00
5:30 AM,68.0,62.6,83,30.09,6.2,South,13.8,-,N/A,,Scattered Clouds,170,2013-09-06 19:30:00
6:00 AM,68,61,73,30.10,,South,15.0,,,,,180,2013-09-06 20:00:00
6:00 AM,68.0,60.8,78,30.09,6.2,South,15.0,-,N/A,,Scattered Clouds,180,2013-09-06 20:00:00
6:30 AM,68.0,60.8,78,30.09,6.2,South,10.4,-,N/A,,Scattered Clouds,170,2013-09-06 20:30:00
7:00 AM,69,62,71,30.12,,SSE,10.4,,,,,160,2013-09-06 21:00:00
7:00 AM,69.8,62.6,78,30.09,6.2,SSE,10.4,-,N/A,,Scattered Clouds,160,2013-09-06 21:00:00
7:30 AM,69.8,62.6,78,30.12,6.2,South,13.8,-,N/A,,Scattered Clouds,170,2013-09-06 21:30:00
8:00 AM,71.6,62.6,73,30.12,6.2,South,12.7,-,N/A,,Scattered Clouds,170,2013-09-06 22:00:00
8:30 AM,73.4,62.6,69,30.12,6.2,SSE,13.8,-,N/A,,Scattered Clouds,160,2013-09-06 22:30:00
9:00 AM,75,62,56,30.15,16,South,15.0,,,,Partly Cloudy,170,2013-09-06 23:00:00
9:00 AM,75.2,62.6,65,30.15,6.2,South,15.0,-,N/A,,Scattered Clouds,170,2013-09-06 23:00:00
9:30 AM,75.2,60.8,61,30.15,6.2,SE,20.7,-,N/A,,Scattered Clouds,140,2013-09-06 23:30:00
10:00 AM,77,61,48,30.16,,SE,24.2,,,,,130,2013-09-07 00:00:00
10:00 AM,77.0,60.8,57,30.15,6.2,SE,24.2,-,N/A,,Scattered Clouds,130,2013-09-07 00:00:00
10:30 AM,77.0,60.8,57,30.15,6.2,SE,24.2,-,N/A,,Scattered Clouds,130,2013-09-07 00:30:00
11:00 AM,75.2,60.8,61,30.15,6.2,SE,23.0,-,N/A,,Scattered Clouds,130,2013-09-07 01:00:00
11:30 AM,77.0,59.0,54,30.12,6.2,SE,21.9,-,N/A,,Scattered Clouds,130,2013-09-07 01:30:00
12:00 PM,78.8,60.8,54,30.12,6.2,SE,21.9,-,N/A,,Scattered Clouds,140,2013-09-07 02:00:00
12:30 PM,78.8,62.6,57,30.12,6.2,SE,19.6,-,N/A,,Scattered Clouds,140,2013-09-07 02:30:00
1:00 PM,78.8,60.8,54,30.09,6.2,SE,20.7,-,N/A,,Mostly Cloudy,130,2013-09-07 03:00:00
1:30 PM,78.8,60.8,54,30.09,6.2,SE,20.7,-,N/A,,Mostly Cloudy,140,2013-09-07 03:30:00
2:00 PM,80.6,60.8,51,30.09,6.2,SE,20.7,-,N/A,,Scattered Clouds,140,2013-09-07 04:00:00
2:30 PM,78.8,59.0,51,30.06,6.2,SE,24.2,-,N/A,,Scattered Clouds,140,2013-09-07 04:30:00
3:00 PM,79,60,42,30.09,19,SE,23.0,,,,Partly Cloudy,140,2013-09-07 05:00:00
3:00 PM,78.8,60.8,54,30.06,6.2,SE,23.0,-,N/A,,Partly Cloudy,140,2013-09-07 05:00:00
3:30 PM,78.8,60.8,54,30.06,6.2,SE,19.6,-,N/A,,Partly Cloudy,140,2013-09-07 05:30:00
4:00 PM,78,61,46,30.09,,SE,19.6,,,,,140,2013-09-07 06:00:00
4:00 PM,77.0,60.8,57,30.06,6.2,SE,19.6,-,N/A,,Scattered Clouds,140,2013-09-07 06:00:00
4:30 PM,77.0,60.8,57,30.09,6.2,SE,24.2,-,N/A,,Scattered Clouds,130,2013-09-07 06:30:00
5:00 PM,73.4,60.8,65,30.09,6.2,SE,18.4,-,N/A,,Mostly Cloudy,140,2013-09-07 07:00:00
5:30 PM,71.6,62.6,73,30.09,6.2,SSE,17.3,-,N/A,,Mostly Cloudy,160,2013-09-07 07:30:00
6:00 PM,72,62,63,30.12,,SSE,15.0,,,,Overcast,160,2013-09-07 08:00:00
6:00 PM,71.6,62.6,73,30.12,6.2,SSE,15.0,-,N/A,Rain,Light Rain Showers,160,2013-09-07 08:00:00
6:30 PM,69.8,62.6,78,30.12,6.2,South,12.7,-,N/A,Rain,Light Rain Showers,180,2013-09-07 08:30:00
7:00 PM,70,63,72,30.14,,South,11.5,,,,,190,2013-09-07 09:00:00
7:00 PM,69.8,62.6,78,30.12,6.2,South,11.5,-,N/A,,Scattered Clouds,190,2013-09-07 09:00:00
7:30 PM,69.8,62.6,78,30.12,6.2,South,10.4,-,N/A,,Scattered Clouds,170,2013-09-07 09:30:00
8:00 PM,69.8,62.6,78,30.15,6.2,SSE,10.4,-,N/A,Rain,Light Rain Showers,160,2013-09-07 10:00:00
8:30 PM,68.0,64.4,88,30.15,6.2,South,13.8,-,N/A,,Scattered Clouds,180,2013-09-07 10:30:00
9:00 PM,69,63,76,30.15,,South,15.0,,,,,190,2013-09-07 11:00:00
9:00 PM,69.8,62.6,78,30.15,6.2,South,15.0,-,N/A,,Scattered Clouds,190,2013-09-07 11:00:00
9:30 PM,69.8,64.4,83,30.15,6.2,South,13.8,-,N/A,,Scattered Clouds,190,2013-09-07 11:30:00
10:00 PM,70,63,71,30.16,,South,10.4,,,,,190,2013-09-07 12:00:00
10:00 PM,69.8,62.6,78,30.15,6.2,South,10.4,-,N/A,,Scattered Clouds,190,2013-09-07 12:00:00
10:30 PM,69.8,62.6,78,30.15,6.2,South,10.4,-,N/A,,Scattered Clouds,170,2013-09-07 12:30:00
11:00 PM,69.8,64.4,83,30.15,6.2,South,10.4,-,N/A,Rain,Light Rain Showers,190,2013-09-07 13:00:00
11:30 PM,69.8,64.4,83,30.15,5.0,South,11.5,-,N/A,Rain,Light Rain Showers,180,2013-09-07 13:30:00